Location: ?????
(37.7324°N, 23.9257°E)
Time: 08:03:59
(UTC+00:00)

Cosmos 923 Rocket - Pass Details

Date: 29 November 2020
Orbit: 757 x 786 km, 74.0° (Epoch: 17 January)

Event Time Altitude Azimuth Distance (km) Brightness Sun altitude
Exits shadow 03:53:36 17° 329° (NNW) 1,908 5.6 -16.6°
Maximum altitude 03:57:36 54° 256° (WSW) 939 4.1 -15.8°
Drops below altitude 10° 04:02:45 10° 180° (S) 2,330 6.7 -14.9°
Sets 04:05:11 0° 176° (S) 3,256 7.5 -14.4°
